Vorticity
11 21 15 10 8 9 9 9 8 9 8 8 1 3 6 2 4 6 6 3 4 4
13 20 17 9 7 4 5 7 6 6 7 6 5 5 5 6 2 2 3 4 5 6
15 13 14 10 10 11 7 8 8 7 8 7 4 5 4 2 5 6 7 2 7 8
21 13 18 14 9 11 8 6 6 4 6 7 6 3 4 6 4 2 10 5 4 3
14 17 11 16 10 7 5 4 3 5 5 4 5 5 3 3 7 4 2 -1 15 17
14 8 14 13 14 8 6 5 5 4 4 5 5 5 8 6 -4 16 12 11 13 4
18 15 14 11 10 9 6 5 5 5 5 8 5 9 2 -4 1 11 -2 1 2 6
18 19 14 13 13 8 8 8 6 5 3 -3 0 0 -1 21 13 -23 1 12 2 7
26 16 9 12 13 12 8 7 5 -6 8 10 13 11 13 2 -24 7 28 15 7 -1
18 13 12 9 6 8 6 10 13 12 7 9 5 2 -18 10 5 5 5 -1 2 9
18 12 12 11 9 11 -2 -4 -7 9 -4 -2 28 1 -6 8 5 9 7 1 3 5
15 5 4 9 8 9 10 10 14 1 12 10 5 -0 0 -3 11 12 6 5 7 13
15 14 13 13 9 7 10 11 10 9 -4 -14 2 4 3 -3 12 9 15 9 9 11
10 13 13 11 -17 -13 16 -4 -6 1 2 8 10 -1 7 13 9 11 2 7 6 4
Height
5792 5791 5790 5789 5790 5790 5792 5794 5794 5796 5796 5796 5795 5794 5793 5793 5792 5790 5789 5788 5786 5784
5782 5782 5781 5781 5781 5782 5782 5783 5783 5784 5784 5784 5784 5784 5784 5783 5781 5780 5779 5776 5773 5771
5774 5772 5772 5772 5771 5773 5772 5773 5774 5775 5775 5775 5775 5775 5773 5772 5771 5770 5769 5766 5763 5759
5765 5764 5764 5765 5764 5764 5764 5764 5765 5765 5765 5765 5765 5764 5763 5761 5759 5757 5754 5751 5749 5745
5755 5754 5755 5754 5754 5754 5754 5754 5753 5754 5754 5753 5752 5751 5750 5748 5745 5743 5740 5737 5734 5730
5745 5743 5743 5744 5744 5744 5743 5743 5743 5742 5741 5740 5739 5739 5737 5735 5733 5729 5725 5721 5717 5714
5734 5731 5731 5731 5731 5732 5731 5731 5730 5729 5728 5726 5725 5724 5723 5721 5718 5714 5711 5706 5703 5698
5723 5721 5720 5719 5719 5719 5719 5718 5717 5716 5715 5713 5711 5709 5707 5705 5703 5700 5694 5690 5684 5680
5710 5709 5707 5707 5707 5706 5706 5705 5704 5703 5700 5698 5695 5693 5691 5690 5687 5681 5677 5672 5666 5661
5694 5694 5693 5692 5692 5692 5692 5691 5690 5688 5686 5683 5680 5677 5673 5670 5667 5663 5659 5655 5651 5644
5680 5680 5680 5679 5679 5678 5677 5676 5673 5671 5668 5665 5662 5658 5654 5651 5648 5645 5640 5634 5629 5625
5667 5666 5666 5666 5666 5665 5662 5660 5658 5655 5651 5648 5643 5639 5635 5633 5630 5627 5622 5614 5609 5602
5653 5654 5653 5652 5651 5648 5645 5643 5640 5637 5634 5629 5623 5617 5614 5611 5609 5605 5601 5594 5586 5579
5640 5639 5638 5637 5634 5631 5629 5627 5626 5621 5617 5611 5605 5599 5593 5589 5586 5582 5579 5574 5568 5559